User: anonymous   Login
Location: *
(42.0175°N, 9.4056°E)
Time: 02:06:03
(UTC+00:00)
Language:

Cosmos 1980 Rocket - Orbit

View from above orbital plane
View from above orbital plane
View from above satellite
View from above satellite

Ground track
Ground track

The orbit data is extracted from the following two-line orbital elements,

1 19650U 88102B   19293.84000096  .00000167  00000-0  10924-3 0  9994
2 19650  71.0006  15.8667 0015852 314.0987  45.8830 14.15784326597104
Epoch (UTC): 20 October 2019 20:09:36
Eccentricity: 0.0015852
inclination: 71.0006°
perigee height: 828 km
apogee height: 851 km
right ascension of ascending node: 15.8667°
argument of perigee: 314.0987°
revolutions per day: 14.15784326
mean anomaly at epoch: 45.8830°
orbit number at epoch: 59710

The dashed part of the orbit path shows where the satellite is in the earth's shadow,  

DLR